Content
SEND FEEDBACK

Daily
Averages
Monthly
Summary
United States of America

TAMUNING, GUAM


Home > North America > United States > Guam
Elevation: 250 feet     Latitude: 13 29N     Longitude: 144 47E

WEATHER
 
SELECT A DAY
Number of Records: 342,166;   Date Range: 1/1/95 - 8/12/14
 
SHARE

PRINT THIS DATA

[ ← Previous Day ]
WEATHER ALMANAC - JUNE 14, 2013
[ Next Day → ]
[ °C ]   °F
Weather ElementAverageHighLow
Temperature80.7 °F86 °F (2:16 pm)77 °F (2:49 pm)
Dewpoint77.2 °F79 °F (8:55 am)73.4 °F (6:18 pm)
Humidity89.4 %100 % (6:19 am)79 % (2:16 pm)
Barometer29.79 in29.84 in (10:34 pm)29.74 in (4:34 am)
Wind Speed12.4 mph23 mph (2:41 pm)
Wind Gust34.5 mph (2:39 pm)
Weather ElementAverage
Visibility8.5 mi
Wind DirectionESE (97.2 °)

Weather ElementTotal
Precipitation0.17 in
Cooling Degree Days16.5 (Base 65)
Growing Degree Days31.5 (Base 50)
Averaged from 123 records on June 14, 2013
WEATHER CONDITIONS BREAKOUT
WIND DIRECTION BREAKOUT
WEATHER BY HOUR - JUNE 14, 2013
[ °C ]   °F
Local TimeTemperatureDewpointHumidityBarometerVisibilityWind DirectionWind SpeedGust SpeedPrecipitationEventsConditions
12:21 AM78.8 °F77.0 °F94 %29.79 in10.0 miEast (100°)8.1 mphMostly Cloudy
12:24 AM78.8 °F77.0 °F94 %29.79 in10.0 miEast (90°)9.2 mphScattered Clouds
12:55 AM79.5 °F75.9 °F89 %29.77 in10.0 miEast (100°)9.2 mphClear
1:55 AM79.5 °F76.3 °F90 %29.76 in10.0 miEast (90°)11.5 mphPartly Cloudy
2:08 AM78.8 °F77.0 °F94 %29.76 in10.0 miEast (90°)8.1 mphMostly Cloudy
2:10 AM80.6 °F77.0 °F89 %29.76 in10.0 miEast (80°)9.2 mphMostly Cloudy
2:14 AM80.6 °F77.0 °F89 %29.76 in10.0 miEast (80°)9.2 mphMostly Cloudy
2:23 AM78.8 °F77.0 °F94 %29.76 in10.0 miEast (90°)11.5 mphScattered Clouds
2:31 AM80.6 °F77.0 °F89 %29.76 in10.0 miEast (100°)8.1 mphMostly Cloudy
2:39 AM80.6 °F77.0 °F89 %29.75 in10.0 miEast (100°)8.1 mphMostly Cloudy
2:41 AM80.6 °F77.0 °F89 %29.75 in10.0 miEast (100°)6.9 mphMostly Cloudy
2:45 AM78.8 °F77.0 °F94 %29.75 in10.0 miEast (100°)8.1 mphScattered Clouds
2:55 AM79.7 °F77.2 °F92 %29.75 in10.0 miEast (90°)10.4 mphScattered Clouds
3:10 AM80.6 °F77.0 °F89 %29.75 in10.0 miEast (90°)10.4 mphMostly Cloudy
3:11 AM80.6 °F77.0 °F89 %29.75 in10.0 miEast (90°)10.4 mphMostly Cloudy
3:14 AM80.6 °F77.0 °F89 %29.75 in10.0 miEast (80°)10.4 mphMostly Cloudy
3:17 AM80.6 °F77.0 °F89 %29.75 in10.0 miEast (90°)10.4 mphMostly Cloudy
3:20 AM80.6 °F77.0 °F89 %29.75 in10.0 miEast (90°)9.2 mphMostly Cloudy
3:23 AM80.6 °F77.0 °F89 %29.75 in10.0 miEast (90°)10.4 mphMostly Cloudy
3:46 AM80.6 °F77.0 °F89 %29.75 in10.0 miEast (90°)10.4 mphScattered Clouds
3:52 AM80.6 °F77.0 °F89 %29.75 in10.0 miEast (90°)11.5 mphMostly Cloudy
3:55 AM79.9 °F76.8 °F90 %29.75 in10.0 miEast (90°)10.4 mphMostly Cloudy
4:01 AM80.6 °F77.0 °F89 %29.75 in10.0 miEast (100°)11.5 mphScattered Clouds
4:34 AM80.6 °F77.0 °F89 %29.74 in10.0 miEast (90°)11.5 mphMostly Cloudy
4:39 AM80.6 °F77.0 °F89 %29.74 in10.0 miEast (90°)11.5 mphScattered Clouds
4:55 AM79.9 °F77.2 °F91 %29.75 in10.0 miEast (90°)11.5 mphScattered Clouds
5:00 AM80.6 °F77.0 °F89 %29.75 in10.0 miEast (80°)13.8 mphMostly Cloudy
5:02 AM80.6 °F77.0 °F89 %29.75 in10.0 miENE (70°)13.8 mphScattered Clouds
5:39 AM78.8 °F77.0 °F94 %29.76 in10.0 miEast (100°)10.4 mphMostly Cloudy
5:44 AM78.8 °F77.0 °F94 %29.76 in10.0 miESE (110°)10.4 mphMostly Cloudy
5:55 AM79.2 °F76.6 °F92 %29.76 in10.0 miEast (100°)8.1 mphMostly Cloudy
6:19 AM78.8 °F78.8 °F100 %29.76 in10.0 miEast (90°)8.1 mphMostly Cloudy
6:24 AM78.8 °F78.8 °F100 %29.76 in10.0 miEast (90°)8.1 mphMostly Cloudy
6:25 AM78.8 °F78.8 °F100 %29.76 in10.0 miEast (80°)8.1 mphMostly Cloudy
6:29 AM80.6 °F78.8 °F94 %29.77 in10.0 miEast (80°)8.1 mphMostly Cloudy
6:33 AM80.6 °F78.8 °F94 %29.77 in10.0 miEast (80°)9.2 mphOvercast
6:39 AM80.6 °F77.0 °F89 %29.77 in10.0 miEast (80°)12.7 mphMostly Cloudy
6:49 AM80.6 °F77.0 °F89 %29.78 in10.0 miEast (90°)10.4 mphScattered Clouds
6:55 AM80.4 °F77.9 °F92 %29.78 in10.0 miEast (90°)11.5 mphScattered Clouds
7:55 AM82.2 °F77.5 °F86 %29.80 in10.0 miEast (90°)15.0 mphPartly Cloudy
8:17 AM82.4 °F78.8 °F89 %29.80 in10.0 miEast (90°)12.7 mphMostly Cloudy
8:31 AM82.4 °F78.8 °F89 %29.80 in10.0 miEast (100°)11.5 mphScattered Clouds
8:55 AM84.2 °F79.0 °F84 %29.80 in10.0 miEast (90°)11.5 mphScattered Clouds
8:56 AM84.2 °F78.8 °F84 %29.80 in10.0 miEast (100°)13.8 mphMostly Cloudy
9:01 AM82.4 °F77.0 °F84 %29.81 in3.0 miEast (90°)21.9 mph26.5 mphRainHeavy Rain
9:02 AM82.4 °F77.0 °F84 %29.81 in2.5 miEast (90°)18.4 mph26.5 mphRainHeavy Rain
9:03 AM80.6 °F77.0 °F89 %29.81 in2.0 miEast (100°)13.8 mph26.5 mphRainHeavy Rain
9:04 AM80.6 °F77.0 °F89 %29.81 in1.8 miEast (90°)13.8 mph26.5 mphRainHeavy Rain
9:05 AM80.6 °F77.0 °F89 %29.81 in1.5 miEast (90°)13.8 mph26.5 mphRainHeavy Rain
9:06 AM80.6 °F77.0 °F89 %29.81 in1.2 miEast (90°)11.5 mph26.5 mphRainHeavy Rain
9:10 AM78.8 °F77.0 °F94 %29.81 in1.5 miEast (100°)9.2 mphRainRain
9:12 AM80.6 °F77.0 °F89 %29.81 in2.0 miEast (100°)9.2 mphRainLight Rain
9:13 AM80.6 °F77.0 °F89 %29.81 in2.5 miEast (90°)10.4 mphRainLight Rain
9:14 AM80.6 °F77.0 °F89 %29.81 in3.0 miEast (90°)10.4 mphRainLight Rain
9:18 AM80.6 °F78.8 °F94 %29.81 in10.0 miEast (90°)11.5 mphMostly Cloudy
9:19 AM80.6 °F78.8 °F94 %29.81 in10.0 miEast (100°)11.5 mphMostly Cloudy
9:55 AM82.4 °F78.1 °F87 %29.80 in9.0 miEast (90°)16.1 mph0.07 inScattered Clouds
9:57 AM82.4 °F78.8 °F89 %29.80 in9.0 miEast (90°)15.0 mphLight Drizzle
9:58 AM82.4 °F78.8 °F89 %29.80 in9.0 miEast (90°)17.3 mphLight Drizzle
10:00 AM82.4 °F78.8 °F89 %29.80 in9.0 miEast (90°)17.3 mphLight Drizzle
10:05 AM84.2 °F78.8 °F84 %29.80 in10.0 miEast (100°)12.7 mphMostly Cloudy
10:32 AM84.2 °F78.8 °F84 %29.79 in10.0 miEast (100°)15.0 mphMostly Cloudy
10:33 AM84.2 °F78.8 °F84 %29.79 in10.0 miEast (100°)17.3 mphMostly Cloudy
10:42 AM84.2 °F78.8 °F84 %29.79 in10.0 miEast (100°)17.3 mphMostly Cloudy
10:55 AM84.9 °F78.6 °F81 %29.79 in10.0 miEast (100°)15.0 mph0.00 inMostly Cloudy
11:06 AM82.4 °F77.0 °F84 %29.80 in10.0 miSE (130°)18.4 mphOvercast
11:09 AM80.6 °F77.0 °F89 %29.80 in10.0 miSE (130°)16.1 mphOvercast
11:10 AM80.6 °F77.0 °F89 %29.80 in10.0 miSE (130°)17.3 mphOvercast
11:14 AM80.6 °F78.8 °F94 %29.80 in10.0 miESE (120°)16.1 mphOvercast
11:15 AM80.6 °F78.8 °F94 %29.80 in10.0 miESE (120°)16.1 mphOvercast
11:17 AM80.6 °F78.8 °F94 %29.80 in10.0 miSE (130°)17.3 mph24.2 mphOvercast
11:18 AM80.6 °F78.8 °F94 %29.80 in10.0 miSE (130°)16.1 mphOvercast
11:34 AM82.4 °F77.0 °F84 %29.80 in9.0 miEast (100°)16.1 mph25.3 mphRainLight Rain
11:37 AM82.4 °F77.0 °F84 %29.80 in9.0 miESE (110°)16.1 mphRainLight Rain
11:39 AM82.4 °F77.0 °F84 %29.80 in9.0 miESE (110°)15.0 mphRainLight Rain
11:45 AM82.4 °F77.0 °F84 %29.79 in10.0 miEast (100°)13.8 mphScattered Clouds
11:55 AM83.5 °F77.2 °F81 %29.79 in10.0 miEast (100°)16.1 mph24.2 mph0.00 inPartly Cloudy
12:52 PM82.4 °F77.0 °F84 %29.79 in10.0 miEast (100°)15.0 mphLight Drizzle
12:55 PM82.9 °F77.2 °F83 %29.78 in10.0 miESE (110°)11.5 mph0.00 inLight Drizzle
12:57 PM82.4 °F77.0 °F84 %29.79 in10.0 miESE (110°)11.5 mphScattered Clouds
1:55 PM85.1 °F78.8 °F81 %29.78 in10.0 miESE (110°)13.8 mph0.00 inPartly Cloudy
2:06 PM84.2 °F78.8 °F84 %29.77 in10.0 miEast (100°)15.0 mphMostly Cloudy
2:11 PM84.2 °F78.8 °F84 %29.77 in10.0 miESE (110°)13.8 mphScattered Clouds
2:16 PM86.0 °F78.8 °F79 %29.77 in10.0 miEast (100°)13.8 mphMostly Cloudy
2:39 PM80.6 °F77.0 °F89 %29.78 in2.5 miESE (110°)21.9 mph34.5 mphHaze
2:41 PM80.6 °F77.0 °F89 %29.78 in1.8 miESE (110°)23.0 mph34.5 mphOvercast
2:42 PM80.6 °F77.0 °F89 %29.78 in1.2 miESE (110°)21.9 mph34.5 mphOvercast
2:43 PM78.8 °F77.0 °F94 %29.78 in1.0 miESE (110°)20.7 mph34.5 mphOvercast
2:44 PM78.8 °F77.0 °F94 %29.78 in1.0 miESE (110°)18.4 mph34.5 mphOvercast
2:49 PM77.0 °F75.2 °F94 %29.78 in1.2 miESE (110°)15.0 mphMostly Cloudy
2:51 PM77.0 °F75.2 °F94 %29.78 in1.5 miESE (110°)15.0 mphMostly Cloudy
2:52 PM77.0 °F75.2 °F94 %29.78 in2.5 miESE (110°)16.1 mphMostly Cloudy
2:53 PM77.0 °F75.2 °F94 %29.77 in3.0 miESE (120°)13.8 mphMostly Cloudy
2:55 PM77.5 °F75.9 °F95 %29.77 in4.0 miESE (120°)15.0 mph0.09 inMostly Cloudy
3:01 PM77.0 °F75.2 °F94 %29.77 in6.0 miESE (120°)12.7 mphScattered Clouds
3:55 PM81.3 °F77.2 °F87 %29.76 in10.0 miESE (110°)11.5 mphClear
4:55 PM81.5 °F77.7 °F88 %29.76 in10.0 miEast (100°)12.7 mphScattered Clouds
5:01 PM80.6 °F77.0 °F89 %29.77 in10.0 miEast (90°)9.2 mphMostly Cloudy
5:07 PM82.4 °F77.0 °F84 %29.77 in10.0 miEast (100°)10.4 mphScattered Clouds
5:19 PM82.4 °F77.0 °F84 %29.77 in10.0 miEast (90°)11.5 mphMostly Cloudy
5:55 PM81.3 °F77.7 °F89 %29.78 in10.0 miEast (90°)12.7 mphMostly Cloudy
6:08 PM80.6 °F77.0 °F89 %29.79 in8.0 miESE (110°)18.4 mph24.2 mphRainLight Rain
6:10 PM78.8 °F77.0 °F94 %29.79 in4.0 miESE (110°)15.0 mph24.2 mphRainRain
6:18 PM77.0 °F73.4 °F89 %29.79 in5.0 miESE (120°)13.8 mphMostly Cloudy
6:20 PM77.0 °F73.4 °F89 %29.80 in9.0 miESE (120°)11.5 mphScattered Clouds
6:35 PM77.0 °F73.4 °F89 %29.80 in10.0 miESE (120°)8.1 mphPartly Cloudy
6:55 PM77.4 °F75.2 °F93 %29.80 in10.0 miEast (100°)4.6 mph0.01 inMostly Cloudy
7:55 PM78.8 °F75.4 °F89 %29.82 in10.0 miEast (80°)6.9 mphClear
8:55 PM79.9 °F77.7 °F93 %29.82 in10.0 miEast (80°)9.2 mphScattered Clouds
9:33 PM80.6 °F77.0 °F89 %29.83 in10.0 miEast (80°)8.1 mphMostly Cloudy
9:55 PM80.2 °F78.1 °F93 %29.83 in10.0 miEast (80°)8.1 mphOvercast
10:16 PM80.6 °F77.0 °F89 %29.83 in10.0 miEast (90°)10.4 mphMostly Cloudy
10:19 PM80.6 °F77.0 °F89 %29.83 in10.0 miEast (90°)10.4 mphScattered Clouds
10:20 PM80.6 °F77.0 °F89 %29.83 in10.0 miEast (90°)10.4 mphMostly Cloudy
10:23 PM80.6 °F77.0 °F89 %29.83 in10.0 miEast (90°)9.2 mphScattered Clouds
10:25 PM80.6 °F77.0 °F89 %29.83 in10.0 miEast (80°)9.2 mphMostly Cloudy
10:34 PM80.6 °F77.0 °F89 %29.84 in10.0 miEast (80°)10.4 mphScattered Clouds
10:36 PM80.6 °F77.0 °F89 %29.84 in10.0 miEast (80°)10.4 mphMostly Cloudy
10:38 PM80.6 °F77.0 °F89 %29.84 in10.0 miEast (80°)12.7 mphScattered Clouds
10:55 PM80.4 °F77.5 °F91 %29.84 in10.0 miEast (80°)10.4 mphScattered Clouds
11:24 PM80.6 °F77.0 °F89 %29.83 in10.0 miEast (90°)9.2 mphMostly Cloudy
11:35 PM80.6 °F77.0 °F89 %29.83 in10.0 miEast (90°)10.4 mphScattered Clouds
11:55 PM80.1 °F77.5 °F92 %29.82 in10.0 miEast (80°)9.2 mphPartly Cloudy
Hourly data recorded from PGUA, located miles away from Tamuning, Guam







STORIES FROM OUR PARTNERS